�������C�����ː����j�^�v���󋵏��
Date,Time,Cs137(Bq/L),Cs134(Bq/L),�S��(Bq/L)
2021/02/20,00:00,-,-,16
2021/02/20,00:10,-,-,14
2021/02/20,00:20,-,-,14
2021/02/20,00:30,-,-,17
2021/02/20,00:40,-,-,18
2021/02/20,00:50,-,-,21
2021/02/20,01:00,-,-,19
2021/02/20,01:10,-,-,20
2021/02/20,01:20,-,-,23
2021/02/20,01:30,-,-,21
2021/02/20,01:40,-,-,21
2021/02/20,01:50,-,-,20
2021/02/20,02:00,-,-,21
2021/02/20,02:10,-,-,20
2021/02/20,02:20,-,-,18
2021/02/20,02:30,-,-,16
2021/02/20,02:40,-,-,16
2021/02/20,02:50,-,-,12
2021/02/20,03:00,-,-,13
2021/02/20,03:10,-,-,14
2021/02/20,03:20,-,-,15
2021/02/20,03:30,-,-,16
2021/02/20,03:40,-,-,16
2021/02/20,03:50,-,-,19
2021/02/20,04:00,-,-,16
2021/02/20,04:10,-,-,16
2021/02/20,04:20,-,-,16
2021/02/20,04:30,-,-,14
2021/02/20,04:40,-,-,11
2021/02/20,04:50,-,-,12
2021/02/20,05:00,-,-,14
2021/02/20,05:10,-,-,13
2021/02/20,05:20,-,-,13
2021/02/20,05:30,-,-,14
2021/02/20,05:40,-,-,15
2021/02/20,05:50,-,-,14
2021/02/20,06:00,-,-,15
2021/02/20,06:10,-,-,16
2021/02/20,06:20,-,-,16
2021/02/20,06:30,-,-,14
2021/02/20,06:40,-,-,15
2021/02/20,06:50,-,-,16
2021/02/20,07:00,-,-,14
2021/02/20,07:10,-,-,12
2021/02/20,07:20,-,-,13
2021/02/20,07:30,-,-,15
2021/02/20,07:40,-,-,14
2021/02/20,07:50,-,-,13
2021/02/20,08:00,-,-,14
2021/02/20,08:10,-,-,14
2021/02/20,08:20,-,-,15
2021/02/20,08:30,-,-,14
2021/02/20,08:40,-,-,15
2021/02/20,08:50,-,-,16
2021/02/20,09:00,-,-,16
2021/02/20,09:10,-,-,17
2021/02/20,09:20,-,-,15
2021/02/20,09:30,-,-,15
2021/02/20,09:40,-,-,16
2021/02/20,09:50,-,-,15
2021/02/20,10:00,-,-,18
2021/02/20,10:10,-,-,18
2021/02/20,10:20,-,-,19
2021/02/20,10:30,-,-,18
2021/02/20,10:40,-,-,16
2021/02/20,10:50,-,-,16
2021/02/20,11:00,-,-,13
2021/02/20,11:10,-,-,13
2021/02/20,11:20,-,-,11
2021/02/20,11:30,-,-,12
2021/02/20,11:40,-,-,14
2021/02/20,11:50,-,-,13
2021/02/20,12:00,-,-,13
2021/02/20,12:10,-,-,14
2021/02/20,12:20,-,-,14
2021/02/20,12:30,-,-,14
2021/02/20,12:40,-,-,17
2021/02/20,12:50,-,-,18
2021/02/20,13:00,-,-,18
2021/02/20,13:10,-,-,19
2021/02/20,13:20,-,-,17
2021/02/20,13:30,-,-,16
2021/02/20,13:40,-,-,13
2021/02/20,13:50,-,-,14
2021/02/20,14:00,-,-,16
2021/02/20,14:10,-,-,13
2021/02/20,14:20,-,-,17
2021/02/20,14:30,-,-,18
2021/02/20,14:40,-,-,19
2021/02/20,14:50,-,-,21
2021/02/20,15:00,-,-,17
2021/02/20,15:10,-,-,18
2021/02/20,15:20,-,-,17
2021/02/20,15:30,-,-,16
2021/02/20,15:40,-,-,18
2021/02/20,15:50,-,-,15
2021/02/20,16:00,-,-,14
2021/02/20,16:10,-,-,14
2021/02/20,16:20,-,-,15
2021/02/20,16:30,-,-,16
2021/02/20,16:40,-,-,13
2021/02/20,16:50,-,-,14
2021/02/20,17:00,-,-,16
2021/02/20,17:10,-,-,17
2021/02/20,17:20,-,-,17
2021/02/20,17:30,-,-,17
2021/02/20,17:40,-,-,18
2021/02/20,17:50,-,-,19
2021/02/20,18:00,-,-,18
2021/02/20,18:10,-,-,16
2021/02/20,18:20,-,-,14
2021/02/20,18:30,-,-,15
2021/02/20,18:40,-,-,14
2021/02/20,18:50,-,-,13
2021/02/20,19:00,-,-,11
2021/02/20,19:10,-,-,12
2021/02/20,19:20,-,-,12
2021/02/20,19:30,-,-,13
2021/02/20,19:40,-,-,13
2021/02/20,19:50,-,-,11
2021/02/20,20:00,-,-,13
2021/02/20,20:10,-,-,13
2021/02/20,20:20,-,-,14
2021/02/20,20:30,-,-,13
2021/02/20,20:40,-,-,13
2021/02/20,20:50,-,-,15
2021/02/20,21:00,-,-,15
2021/02/20,21:10,-,-,15
2021/02/20,21:20,-,-,14
2021/02/20,21:30,-,-,13
2021/02/20,21:40,-,-,14
2021/02/20,21:50,-,-,12
2021/02/20,22:00,-,-,12
2021/02/20,22:10,-,-,12
2021/02/20,22:20,-,-,16
2021/02/20,22:30,-,-,15
2021/02/20,22:40,-,-,14
2021/02/20,22:50,-,-,14
2021/02/20,23:00,-,-,16
2021/02/20,23:10,-,-,17
2021/02/20,23:20,-,-,15
2021/02/20,23:30,-,-,16
2021/02/20,23:40,-,-,14
2021/02/20,23:50,-,-,16
